Date String (YYYY-MM-DD hh:mm:ss) UTC,Instrument flags,absolute air pressure of the measurement (hPa),sample flow rate (lpm),inlet stack bypass flow (lpm),air temperature of the measurement (°C),ambient temperature measured by the external sensor (°C),aerosol sample conditioner tube jacket temperature (°C),OPC LED temperature (°C),internal box temperature (°C),relative humidity of the measurement (%),span deviation,mass concentration of particles derived from Lorenz-Mie calculation of OPC scattering (μg/m³),mass concentration of particles derived from Lorenz-Mie calculation of OPC scattering (μg/m³),mass concentration of particles derived from Lorenz-Mie calculation of OPC scattering (μg/m³)
DateTimeUTC,F1_M11,P_M11,Q1_M11,Q2_M11,T1_M11,T2_M11,T3_M11,T4_M11,T5_M11,U1_M11,ZSPAN_M11,X0_M11,X2_M11,X1_M11
2023-08-28 14:00:00,SystemResetWarning,0837.2,5.01,000.00,030.0,026.2,000.0,037.6,030.3,33.9,0000.0,0008.64,0004.60,0004.17
2023-08-28 14:01:00,SystemResetWarning,0837.2,5.00,000.00,030.0,026.4,000.0,037.7,030.3,33.7,0000.1,0008.63,0004.61,0004.17
2023-08-28 14:02:00,SystemResetWarning,0837.2,4.99,000.00,030.0,026.6,000.0,037.8,030.3,33.5,0000.7,0008.68,0004.62,0004.18
2023-08-28 14:03:00,SystemResetWarning,0837.2,5.00,000.00,030.1,026.8,000.0,037.9,030.3,33.3,0000.0,0008.31,0004.62,0004.17
2023-08-28 14:04:00,SystemResetWarning,0837.2,5.00,000.00,030.1,026.9,000.0,037.9,030.4,33.1,0000.0,0007.87,0004.60,0004.17
2023-08-28 14:05:00,SystemResetWarning,0837.2,5.01,000.00,030.1,027.0,000.0,038.0,030.4,33.5,0000.7,0007.52,0004.60,0004.19
2023-08-28 14:06:00,SystemResetWarning,0837.2,5.01,000.00,030.1,027.1,000.0,038.0,030.4,33.3,0001.2,0007.49,0004.61,0004.21
2023-08-28 14:07:00,SystemResetWarning,0837.2,4.99,000.00,030.0,027.2,000.0,038.1,030.4,33.2,0000.0,0007.50,0004.62,0004.23
2023-08-28 14:08:00,SystemResetWarning,0837.2,4.99,000.00,030.0,027.3,000.0,038.1,030.5,33.5,0001.1,0007.88,0004.66,0004.26
2023-08-28 14:09:00,SystemResetWarning,0837.2,4.99,000.00,030.0,027.3,000.0,038.1,030.5,33.1,0000.3,0008.13,0004.66,0004.29
2023-08-28 14:10:00,SystemResetWarning,0837.2,5.00,000.00,030.0,027.4,000.0,038.2,030.5,33.3,0000.0,0008.10,0004.67,0004.30
2023-08-28 14:11:00,SystemResetWarning,0837.2,5.00,000.00,030.0,027.4,000.0,038.2,030.6,33.0,0000.0,0008.12,0004.68,0004.32
2023-08-28 14:12:00,SystemResetWarning,0837.2,5.00,000.00,030.0,027.5,000.0,038.2,030.6,32.8,0000.6,0008.20,0004.71,0004.34
2023-08-28 14:13:00,SystemResetWarning,0837.2,5.00,000.00,030.0,027.5,000.0,038.2,030.6,32.8,0000.6,0008.25,0004.72,0004.35
2023-08-28 14:14:00,SystemResetWarning,0837.2,5.00,000.00,030.0,027.5,000.0,038.2,030.6,33.0,0001.1,0008.28,0004.76,0004.37
2023-08-28 14:15:00,SystemResetWarning,0837.2,5.00,000.00,030.0,027.5,000.0,038.2,030.6,33.0,0001.1,0008.29,0004.78,0004.38
2023-08-28 14:16:00,SystemResetWarning,0837.2,5.00,000.00,029.9,027.5,000.0,038.3,030.6,33.6,0000.8,0008.28,0004.80,0004.40
2023-08-28 14:17:00,SystemResetWarning,0837.2,5.00,000.00,029.9,027.6,000.0,038.3,030.6,33.9,0000.6,0008.44,0004.83,0004.41
2023-08-28 14:18:00,SystemResetWarning,0837.2,5.00,000.00,029.9,027.6,000.0,038.3,030.6,34.1,0000.7,0008.51,0004.84,0004.41
2023-08-28 14:19:00,SystemResetWarning,0837.2,5.00,000.00,029.9,027.6,000.0,038.3,030.7,34.5,0001.7,0008.28,0004.87,0004.42
2023-08-28 14:20:00,SystemResetWarning,0837.2,5.01,000.00,029.9,027.6,000.0,038.3,030.7,34.6,0002.1,0008.05,0004.88,0004.42
2023-08-28 14:21:00,SystemResetWarning,0837.2,5.00,000.00,029.9,027.6,000.0,038.3,030.7,34.8,0002.3,0008.06,0004.90,0004.43
2023-08-28 14:22:00,SystemResetWarning,0837.2,4.98,000.00,029.9,026.3,000.0,038.1,030.5,34.8,0002.4,0008.02,0004.89,0004.43
2023-08-28 14:23:00,SystemResetWarning,0837.2,5.00,000.00,029.8,024.8,000.0,038.0,030.3,35.1,0002.7,0008.16,0004.90,0004.44
2023-08-28 14:24:00,SystemResetWarning,0837.2,5.02,000.00,029.8,024.4,000.0,037.9,030.1,35.4,0002.5,0008.13,0004.90,0004.44
2023-08-28 14:25:00,SystemResetWarning,0837.2,4.98,000.00,029.9,024.6,000.0,037.9,030.0,35.4,0002.3,0008.07,0004.89,0004.45
2023-08-28 14:26:00,SystemResetWarning,0837.2,5.02,000.00,030.2,025.0,000.0,037.9,030.2,34.5,0002.2,0008.11,0004.89,0004.44
2023-08-28 14:27:00,SystemResetWarning,0837.2,4.98,000.00,030.4,025.4,000.0,038.0,030.3,33.2,0002.1,0008.42,0004.95,0004.45
2023-08-28 14:28:00,SystemResetWarning,0837.2,5.00,000.00,030.5,025.8,000.0,038.0,030.4,32.9,0002.3,0008.38,0004.96,0004.46
2023-08-28 14:29:00,SystemResetWarning,0837.2,5.01,000.00,030.6,026.1,000.0,038.1,030.4,33.7,0002.4,0008.52,0004.94,0004.46
2023-08-28 14:30:00,SystemResetWarning,0837.2,5.00,000.00,030.6,026.4,000.0,038.2,030.4,33.8,0002.1,0009.17,0004.92,0004.45
2023-08-28 14:31:00,SystemResetWarning,0837.2,4.99,000.00,030.6,026.6,000.0,038.3,030.5,33.8,0001.8,0009.28,0004.93,0004.44
2023-08-28 14:32:00,SystemResetWarning,0837.2,4.99,000.00,030.6,026.8,000.0,038.4,030.5,33.9,0001.9,0009.26,0004.91,0004.43
2023-08-28 14:33:00,SystemResetWarning,0837.2,5.00,000.00,030.6,026.9,000.0,038.4,030.5,32.5,0002.0,0009.23,0004.89,0004.40
2023-08-28 14:34:00,SystemResetWarning,0837.2,5.00,000.00,030.6,027.1,000.0,038.5,030.6,32.2,0000.2,0009.08,0004.87,0004.37
2023-08-28 14:35:00,SystemResetWarning,0837.2,5.00,000.00,030.6,027.2,000.0,038.5,030.6,32.0,0000.0,0009.02,0004.87,0004.36
2023-08-28 14:36:00,SystemResetWarning,0837.2,5.01,000.00,030.6,027.3,000.0,038.6,030.7,32.9,0000.0,0008.95,0004.84,0004.35
2023-08-28 14:37:00,SystemResetWarning,0837.2,5.01,000.00,030.5,027.4,000.0,038.6,030.7,32.6,0000.0,0008.98,0004.85,0004.34
2023-08-28 14:38:00,SystemResetWarning,0837.2,5.01,000.00,030.5,027.4,000.0,038.6,030.7,32.3,0000.0,0008.80,0004.80,0004.32
2023-08-28 14:39:00,SystemResetWarning,0837.2,5.00,000.00,030.5,027.5,000.0,038.6,030.7,31.3,0000.0,0008.71,0004.78,0004.31
2023-08-28 14:40:00,SystemResetWarning,0837.5,4.99,000.00,030.5,027.6,000.0,038.7,030.8,31.3,0000.0,0008.55,0004.78,0004.30
2023-08-28 14:41:00,SystemResetWarning,0837.4,4.99,000.00,030.5,027.6,000.0,038.7,030.8,31.3,0000.0,0007.79,0004.78,0004.30
2023-08-28 14:42:00,SystemResetWarning,0837.4,5.01,000.00,030.4,027.7,000.0,038.7,030.8,31.3,0000.0,0007.80,0004.78,0004.31
2023-08-28 14:43:00,SystemResetWarning,0837.2,5.01,000.00,030.4,027.7,000.0,038.7,030.8,32.6,0000.0,0007.81,0004.79,0004.32
2023-08-28 14:44:00,SystemResetWarning,0837.3,5.00,000.00,030.4,027.6,000.0,038.7,030.9,31.6,0000.0,0007.85,0004.80,0004.35
2023-08-28 14:45:00,SystemResetWarning,0837.2,4.98,000.00,030.4,026.4,000.0,038.5,030.7,31.9,-000.0,0007.80,0004.79,0004.37
2023-08-28 14:46:00,SystemResetWarning,0837.2,5.00,000.00,030.3,025.0,000.0,038.4,030.4,31.6,-000.7,0007.83,0004.81,0004.39
2023-08-28 14:47:00,SystemResetWarning,0837.2,5.02,000.00,030.2,024.7,000.0,038.3,030.3,31.5,0000.0,0008.03,0004.84,0004.41
2023-08-28 14:48:00,SystemResetWarning,0837.2,5.00,000.00,030.0,024.9,000.0,038.3,030.1,32.6,0000.5,0008.62,0004.85,0004.42
2023-08-28 14:49:00,SystemResetWarning,0837.2,4.99,000.00,029.9,025.3,000.0,038.3,030.2,34.7,0000.4,0008.48,0004.83,0004.42
2023-08-28 14:50:00,SystemResetWarning,0837.2,5.01,000.00,029.9,025.7,000.0,038.3,030.2,33.9,0000.3,0008.48,0004.83,0004.42
2023-08-28 14:51:00,SystemResetWarning,0837.2,5.01,000.00,029.8,026.0,000.0,038.3,030.3,33.3,0000.2,0008.53,0004.85,0004.42
2023-08-28 14:52:00,SystemResetWarning,0837.2,4.99,000.00,029.8,026.3,000.0,038.3,030.4,34.0,0000.5,0008.61,0004.87,0004.44
2023-08-28 14:53:00,SystemResetWarning,0837.2,5.00,000.00,029.8,026.6,000.0,038.3,030.4,32.6,0001.1,0008.67,0004.85,0004.44
2023-08-28 14:54:00,SystemResetWarning,0837.2,5.00,000.00,029.8,026.8,000.0,038.3,030.5,32.8,0001.0,0008.60,0004.83,0004.44
2023-08-28 14:55:00,SystemResetWarning,0837.2,5.00,000.00,029.8,027.0,000.0,038.3,030.5,33.2,0000.8,0008.58,0004.83,0004.44
2023-08-28 14:56:00,SystemResetWarning,0837.3,5.01,000.00,029.8,027.1,000.0,038.2,030.5,33.8,0001.1,0008.59,0004.84,0004.44
2023-08-28 14:57:00,SystemResetWarning,0837.2,5.00,000.00,029.8,027.3,000.0,038.2,030.6,34.2,0001.3,0009.23,0004.82,0004.42
2023-08-28 14:58:00,SystemResetWarning,0837.3,5.00,000.00,029.8,027.4,000.0,038.2,030.6,33.3,0000.4,0009.46,0004.80,0004.41
2023-08-28 14:59:00,SystemResetWarning,0837.3,4.99,000.00,029.8,027.5,000.0,038.2,030.7,32.8,0000.2,0008.77,0004.79,0004.40
